Regional Weather Roundup
Issued by NWS

Home | Current Version | Previous Version | Graphics & Text | Print | Product List | Glossary On
Versions: 1 2 3 4 5 6 7 8 9 10 11 12 13 14 15 16 17 18 19 20 21 22 23 24 25 26 27 28 29 30 31 32 33 34 35 36 37 38 39 40 41 42 43 44 45 46 47 48 49 50
000
ASUS43 KBIS 300510
RWRND

NORTH DAKOTA REGIONAL WEATHER ROUNDUP
NATIONAL WEATHER SERVICE BISMARCK ND
1200 AM CDT SUN APR 30 2017

NOTE: "FAIR" INDICATES FEW OR NO CLOUDS BELOW 12,000 FEET WITH NO
SIGNIFICANT WEATHER AND/OR OBSTRUCTIONS TO VISIBILITY.


NDZ001>003-009>011-017-300600-
NORTHWEST NORTH DAKOTA

CITY           SKY/WX    TMP DP  RH WIND       PRES   REMARKS
WILLISTON      FAIR      37  30  75 CALM      30.12S
MINOT          FAIR      46  31  55 S9        30.13S
MINOT AFB      PTCLDY    40  31  71 W3        30.12S
$$

NDZ018>021-031>035-040>046-300600-
SOUTHWEST NORTH DAKOTA

CITY           SKY/WX    TMP DP  RH WIND       PRES   REMARKS
BISMARCK       FAIR      42  28  57 SE7       30.19F
DICKINSON      FAIR      35  18  49 S8        30.14F
GARRISON         N/A     41  26  55 S8        30.15S
HETTINGER ARPT CLEAR     38  20  48 CALM      30.18F
$$

NDZ004>008-012>016-024-026-027-054-300600-
NORTHEAST NORTH DAKOTA

CITY           SKY/WX    TMP DP  RH WIND       PRES   REMARKS
GRAND FORKS    CLOUDY    49  34  56 SE9       30.21F
GRND FRKS AFB  CLOUDY    46  31  55 S8        30.21F
DEVILS LAKE    FAIR      46  29  51 SE10      30.19S
$$

NDZ022-023-025-028>030-036>039-047>053-300600-
SOUTHEAST NORTH DAKOTA

CITY           SKY/WX    TMP DP  RH WIND       PRES   REMARKS
FARGO          CLOUDY    45  27  49 E5        30.21F
JAMESTOWN      FAIR      44  30  57 SE8       30.20F
$$




USA.gov is the U.S. government's official web portal to all federal, state and local government web resources and services.